Details From LIMJ - Genova Sestri
To LIRQ - Firenze
Flight Number -
Tags decoded
Created
Modified
Stats Distance 112 nm / 208 km
Max Altitude 0 ft / 0 m
Waypoints 7
Social Downloads 3
Likes 0
Share VATSIM

Download

Looking for another format? Having issues loading an existing format? Contact us
Advertisement - Login to hide

Notes

Requested: LIMJ GEN KALMO BEROK RUXOL FRZ LIRQ

Route

LIMJ GEN KALMO BEROK RUXOL FRZ LIRQ

ID Type Via Altitude (ft/m) Position (lat/lon) Dist (leg/tot) Name
O LIMJ APT - 0 / 0 44.41196 / 8.84187 - / 0 nm Genova Sestri
GEN NDB - 0 / 0 44.42389 / 9.08333 10 / 10 nm GENOVA NDB
KALMO FIX - 0 / 0 44.32167 / 9.59417 22 / 33 nm
BEROK FIX - 0 / 0 44.16556 / 10.35167 33 / 67 nm
RUXOL FIX - 0 / 0 44.11528 / 10.59306 10 / 77 nm
FRZ VOR - 0 / 0 44.02718 / 11.00331 18 / 96 nm FIRENZE VORTAC
O LIRQ APT - 0 / 0 43.80998 / 11.20512 15 / 112 nm Firenze

Altitude Profile

Advertisement - Login to hide

LIMJ

Details ICAO LIMJ (GOA)
Name Genova Cristoforo Colombo Airport
Region Italy
Timezone Unknown
Stats Elevation 13 ft / 4 m (AMSL)
Location 44.412000° 8.841800°
Runways 1
Magnetic Variation 2.532° E

METAR

LIMJ 230150Z 06006KT 020V080 CAVOK 16/M08 Q1024

Decode

TAF

TAF LIMJ 222300Z 2300/2324 01010KT CAVOK

Decode

Departure Runways

ID Width Length Bearing (true/mag) Surface Threshold Overrun Markings Lighting
10 148 ft / 45 m 9,577 ft / 2,919 m 105.33° / 102.80° CONCRETE 0 ft / 0 m 0 ft / 0 m PREC-APP CENTERLINE EDGE THRESHOLD SALS REIL-OMNI
28 148 ft / 45 m 9,577 ft / 2,919 m 285.36° / 282.83° CONCRETE 522 ft / 159 m 0 ft / 0 m PREC-APP CENTERLINE EDGE THRESHOLD SALS REIL-OMNI

LIRQ

Details ICAO LIRQ (FLR)
Name Firenze
Region Italy
Timezone Europe/Rome (UTC+1.0)
Stats Elevation 142 ft / 43 m (AMSL)
Location 43.810000° 11.205100°
Runways 1
Magnetic Variation 3.015° E

METAR

LIRQ 230120Z 23004KT 210V290 CAVOK 11/M00 Q1024

Decode

TAF

TAF LIRQ 222300Z 2300/2324 04007KT CAVOK

Decode

Destination Runways

ID Width Length Bearing (true/mag) Surface Threshold Overrun Markings Lighting
05 98 ft / 30 m 5,133 ft / 1,565 m 48.11° / 45.10° ASPHALT 344 ft / 105 m 0 ft / 0 m PREC-APP EDGE THRESHOLD SSALF REIL-OMNI
23 98 ft / 30 m 5,133 ft / 1,565 m 228.12° / 225.11° ASPHALT 1,909 ft / 582 m 0 ft / 0 m PREC-APP EDGE THRESHOLD REIL-OMNI

Approach Navaids

Runway Type Ident Frequency Range Bearing (true/mag) Slope Elevation
05 DME IFZ 110.30 MHz 18 nm / 33 km - - 144 ft / 44 m (AMSL)
05 LOC-ILS IFZ 110.30 MHz 18 nm / 33 km 48.10° / 45.09 ° - 131 ft / 40 m (AMSL)
05 GS IFZ 110.30 MHz 10 nm / 19 km 47.00° / 43.99 ° 3.00° 144 ft / 44 m (AMSL)

Popular Alternatives